Belvidere, Illinois, United States (61008)
Lat: 42.26N, Lon: 88.84W
Wx Zone: ILZ004
Local Info
Past Weather Observations for Wednesday, February 25, 2015

NOTE: This archive is for the closest National Weather Service station to Belvidere. Information may differ from the station used for current weather conditions.

Click here for Long-term Archive

Time Weather Temperature Dewpoint Humidity Pressure Winds Precip Visibility
23:54
Overcast
Light Snow
16°F / -9°C 9°F / -13°C 73% 30.09 in
(1019 mb)
NE 15 mph
(NE 24 kph)
0.00 in
(0.00 mm)
7SM
22:54
Overcast
Light Snow
16°F / -9°C 10°F / -12°C 79% 30.06 in
(1018 mb)
NNE 11.5 mph
(NNE 19 kph)
0.00 in
(0.00 mm)
3SM
21:54
Overcast
Light Snow
16°F / -9°C 10°F / -12°C 79% 30.06 in
(1018 mb)
NNE 13.8 mph
(NNE 22 kph)
0.02 in
(0.51 mm)
3SM
21:31
Overcast
Light Snow
16°F / -9°C 10°F / -12°C 79% 30.06 in
(1018 mb)
NE 13.8 mph
(NE 22 kph)
0.01 in
(0.25 mm)
1 1/2SM
20:54
Overcast
Light Snow
16°F / -9°C 10°F / -12°C 79% 30.06 in
(1018 mb)
NE 15 mph
(NE 24 kph)
0.01 in
(0.25 mm)
1 1/2SM
20:05
Overcast
Light Snow
16°F / -9°C 12°F / -11°C 86% 30.04 in
(1017 mb)
NNE 12.7 mph
(NNE 20 kph)
0.01 in
(0.25 mm)
1 1/2SM
19:54
Overcast
Light Snow
16°F / -9°C 10°F / -12°C 79% 30.04 in
(1017 mb)
NE 13.8 mph
(NE 22 kph)
0.01 in
(0.25 mm)
2SM
19:37
Overcast
Light Snow
16°F / -9°C 10°F / -12°C 79% 30.04 in
(1017 mb)
NNE 15 mph
(NNE 24 kph)
0.01 in
(0.25 mm)
2SM
19:26
Overcast
Light Snow
16°F / -9°C 12°F / -11°C 86% 30.04 in
(1017 mb)
NNE 12.7 mph
(NNE 20 kph)
0.01 in
(0.25 mm)
1 1/2SM
19:09
Overcast
Light Snow
16°F / -9°C 12°F / -11°C 86% 30.04 in
(1017 mb)
NNE 10.4 mph
(NNE 17 kph)
0.00 in
(0.00 mm)
1SM
18:54
Obscured
Light Snow
16°F / -9°C 12°F / -11°C 86% 30.04 in
(1017 mb)
NNE 9.2 mph
(NNE 15 kph)
0.04 in
(1.02 mm)
3/4SM
18:37
Obscured
Light Snow
16°F / -9°C 12°F / -11°C 86% 30.04 in
(1017 mb)
NNE 10.4 mph
(NNE 17 kph)
0.03 in
(0.76 mm)
3/4SM
18:26
Obscured
Light Snow
18°F / -8°C 12°F / -11°C 79% 30.04 in
(1017 mb)
NNE 10.4 mph
(NNE 17 kph)
0.03 in
(0.76 mm)
3/4SM
17:54
Obscured
Light Snow
18°F / -8°C 12°F / -11°C 79% 30.01 in
(1016 mb)
NNE 9.2 mph
(NNE 15 kph)
0.02 in
(0.51 mm)
3/4SM
17:31
Obscured
Light Snow
18°F / -8°C 12°F / -11°C 79% 30.01 in
(1016 mb)
NNE 9.2 mph
(NNE 15 kph)
0.01 in
(0.25 mm)
3/4SM
17:16
Obscured
Light Snow
18°F / -8°C 12°F / -11°C 79% 29.98 in
(1015 mb)
NE 11.5 mph
(NE 19 kph)
0.00 in
(0.00 mm)
3/4SM
16:54
Overcast
Light Snow
18°F / -8°C 10°F / -12°C 73% 29.98 in
(1015 mb)
NE 12.7 mph
(NE 20 kph)
0.02 in
(0.51 mm)
1SM
15:54
Overcast
Light Snow
18°F / -8°C 12°F / -11°C 79% 29.95 in
(1014 mb)
NE 13.8 mph
(NE 22 kph)
0.01 in
(0.25 mm)
1SM
15:11
Obscured
Light Snow
18°F / -8°C 12°F / -11°C 79% 29.98 in
(1015 mb)
ENE 8.1 mph
(ENE 13 kph)
0.00 in
(0.00 mm)
1SM
14:54
Overcast
Light Snow
18°F / -8°C 10°F / -12°C 73% 29.98 in
(1015 mb)
NE 8.1 mph
(NE 13 kph)
0.01 in
(0.25 mm)
1 1/2SM
14:44
Overcast
Light Snow
18°F / -8°C 10°F / -12°C 73% 29.98 in
(1015 mb)
NE 5.8 mph
(NE 9 kph)
0.01 in
(0.25 mm)
1 1/2SM
13:54
Overcast
Light Snow
19°F / -7°C 7°F / -14°C 58% 29.98 in
(1015 mb)
N 4.6 mph
(N 7 kph)
0.00 in
(0.00 mm)
2SM
13:44
Overcast
Light Snow
19°F / -7°C 7°F / -14°C 58% 29.98 in
(1015 mb)
Calm 0.00 in
(0.00 mm)
2SM
12:54
Overcast
19°F / -7°C -2°F / -19°C 38% 30.01 in
(1016 mb)
NNE 6.9 mph
(NNE 11 kph)
- 10SM
11:54
Overcast
19°F / -7°C -2°F / -19°C 38% 30.04 in
(1017 mb)
NE 5.8 mph
(NE 9 kph)
- 10SM
10:54
Overcast
18°F / -8°C -2°F / -19°C 41% 30.04 in
(1017 mb)
E 3.5 mph
(E 6 kph)
- 10SM
09:54
Overcast
16°F / -9°C -2°F / -19°C 45% 30.04 in
(1017 mb)
E 5.8 mph
(E 9 kph)
- 10SM
08:54
Overcast
14°F / -10°C -2°F / -19°C 48% 30.04 in
(1017 mb)
E 6.9 mph
(E 11 kph)
- 10SM
07:54
Overcast
12°F / -11°C -2°F / -19°C 52% 30.01 in
(1016 mb)
E 9.2 mph
(E 15 kph)
- 10SM
06:54
Overcast
10°F / -12°C -2°F / -19°C 56% 29.98 in
(1015 mb)
ENE 6.9 mph
(ENE 11 kph)
- 10SM
05:54
Partly Cloudy
10°F / -12°C -4°F / -20°C 52% 29.95 in
(1014 mb)
NE 6.9 mph
(NE 11 kph)
- 10SM
04:54
Clear
12°F / -11°C -4°F / -20°C 48% 29.95 in
(1014 mb)
NE 9.2 mph
(NE 15 kph)
- 10SM
03:54
Clear
14°F / -10°C -2°F / -19°C 48% 29.95 in
(1014 mb)
NE 10.4 mph
(NE 17 kph)
- 10SM
02:54
Clear
16°F / -9°C °F / -18°C 48% 29.92 in
(1013 mb)
N 5.8 mph
(N 9 kph)
- 10SM
01:54
Clear
19°F / -7°C 1°F / -17°C 45% 29.89 in
(1012 mb)
N 5.8 mph
(N 9 kph)
- 10SM
00:54
Clear
19°F / -7°C 5°F / -15°C 53% 29.89 in
(1012 mb)
N 10.4 mph
(N 17 kph)
- 10SM
Time Weather Temperature Dewpoint Humidity Pressure Winds Precip Visibility


Weather for websites

WeatherForYou.com, LLC is not responsible for any damages or problems caused by this service. Current weather conditions are obtained from the closest station including government and personal stations which may have varying degrees of accuracy. Weather forecasts are derived from the NOAA NDFD. Like all things, this site belongs to Jesus Christ... He just trusts me to maintain it. If you have any questions or comments email webmaster@weatherforyou.com

Copyright © 2015, WeatherForYou.com LLC. All rights reserved.